Tracking 29892 objects as of 21-Nov-2024
HD Live streaming from Space Station
objects crossing your sky now

STARLINK-2119

Track STARLINK-2119 now!
10-day predictions
STARLINK-2119 is classified as:


NORAD ID: 47397
Int'l Code: 2021-005BA
Perigee: 553.2 km
Apogee: 555.0 km
Inclination: 53.1 °
Period: 95.6 minutes
Semi major axis: 6925 km
RCS: Unknown
Launch date: January 20, 2021
Source: United States (US)
Launch site: AIR FORCE EASTERN TEST RANGE (AFETR)
Your satellite tracking list
Your tracking list is empty




NASA's NSSDC Master Catalog

Two Line Element Set (TLE):
1 47397U 21005BA  24325.56275260  .00029042  00000-0  19570-2 0  9998
2 47397  53.0535  30.0594 0001300  87.8314 272.2824 15.06467149211586
Source of the keplerian elements: AFSPC